Location: Street
(51.1247°N, 2.7429°W)
Time: 04:34:20
(UTC+00:00)

SR - Pass Details

Date: 27 November 2020
Orbit: 575 x 880 km, 66.7° (Epoch: 25 January)

Event Time Altitude Azimuth Distance (km) Brightness Sun altitude
Rises 04:55:11 0° 312° (NW) 3,194 - -26.2°
Reaches altitude 10° 04:58:03 10° 296° (WNW) 2,322 - -25.8°
Maximum altitude 05:01:51 20° 250° (WSW) 1,781 - -25.2°
Drops below altitude 10° 05:05:50 10° 205° (SSW) 2,440 - -24.5°
Exits shadow 05:06:54 - 199° (SSW) 2,751 ? -24.4°
Sets 05:08:57 0° 190° (S) 3,409 ? -24.1°
